Wind_Speed
5 6 6 12 17 21 24 20 13 6 10 4 9 11 13 12 11 10 8 7 6 8 10 12 14 15 14 14 11 10 8 8
7 11 14 19 20 21 21 17 11 9 16 22 19 14 12 9 7 5 4 5 7 10 12 13 15 14 14 13 10 10 10 11
11 13 15 16 19 20 18 15 17 19 21 18 12 14 8 7 5 4 4 6 9 12 14 14 13 10 11 11 11 11 10 9
10 12 13 16 18 20 22 22 21 18 14 12 10 8 6 4 3 1 4 7 11 13 13 11 12 13 11 11 9 8 9 8
11 15 15 17 20 20 20 19 18 17 15 7 5 3 3 3 2 2 4 9 11 12 12 11 12 13 10 9 7 7 6 9
10 12 13 12 18 19 17 15 13 10 7 3 2 1 1 2 2 2 5 10 11 12 12 13 13 13 11 8 6 5 5 7
9 7 8 6 10 11 11 13 9 6 3 2 1 2 3 2 2 5 6 10 12 13 14 16 15 13 11 9 8 7 7 7
10 12 13 11 9 13 10 9 8 6 4 3 5 5 3 3 6 9 9 11 12 14 16 16 16 15 12 10 8 10 11 10
9 9 9 7 7 6 7 7 6 5 4 6 4 3 4 7 9 11 12 14 15 16 17 19 19 16 13 11 10 12 13 14
10 10 8 6 6 6 7 7 5 5 5 2 1 4 8 12 13 12 13 15 18 21 23 22 20 18 15 12 12 12 12 16
6 7 7 7 7 5 5 5 6 5 3 2 4 7 9 9 9 12 16 17 18 20 22 23 21 17 11 11 13 12 14 13
7 9 8 7 6 5 6 7 6 2 1 4 6 6 8 9 10 12 14 17 18 21 23 21 15 10 11 10 8 10 11 12
10 9 8 7 6 8 9 5 2 2 3 6 6 8 6 7 10 12 15 17 19 21 21 16 11 11 12 13 10 9 11 9
8 9 8 8 9 9 7 4 5 6 4 7 8 5 5 7 10 13 15 18 20 19 15 12 12 14 12 6 8 8 6 6
8 8 7 7 9 8 8 6 4 3 7 9 6 5 6 9 12 15 19 20 18 17 12 10 11 11 6 5 5 4 6 10
8 8 8 8 10 13 9 4 2 6 8 9 7 6 8 11 14 18 19 18 16 16 11 12 10 3 1 3 3 6 10 13
9 9 10 11 11 9 6 1 4 7 9 9 6 7 9 13 17 17 15 14 14 12 9 3 1 2 3 4 7 8 11 13
10 9 12 11 9 6 1 3 7 8 9 5 5 8 12 14 14 14 14 13 10 11 7 4 1 1 4 7 11 9 11 14
8 12 11 9 6 1 3 5 6 6 5 5 7 11 13 11 13 14 12 11 10 8 6 1 1 1 6 10 12 10 12 14
Wind_Direction
51 88 119 141 142 142 141 134 127 80 320 268 158 145 135 130 117 110 112 98 73 47 35 18 4 357 353 350 347 339 329 329
93 104 114 126 138 152 162 161 176 201 148 158 154 158 148 137 127 119 104 70 49 30 18 4 357 359 358 354 345 338 334 339
107 111 126 140 147 149 154 161 146 155 161 163 159 159 165 154 136 144 93 50 30 15 2 357 1 360 353 350 348 338 329 342
122 123 124 131 137 144 144 148 151 161 172 172 159 155 148 162 166 105 61 31 8 358 353 354 355 354 348 345 342 339 329 329
138 139 138 140 140 142 145 153 160 169 172 175 193 218 203 216 200 105 26 6 354 348 340 335 335 335 329 325 323 315 310 310
156 155 147 147 146 148 148 148 153 157 178 174 249 276 8 98 107 23 347 345 342 338 322 315 310 307 307 298 292 283 265 291
166 173 163 155 150 152 158 159 165 173 182 206 237 83 93 103 309 320 319 335 330 329 318 308 294 294 289 280 280 267 262 275
174 180 182 179 161 156 176 174 165 155 135 108 86 72 50 334 314 314 316 316 317 320 315 305 295 295 290 292 287 297 300 294
185 191 187 172 160 168 182 167 157 137 115 99 79 32 329 307 303 304 302 307 310 316 314 308 302 296 287 286 289 298 305 303
184 186 176 155 152 168 182 162 152 145 116 96 2 299 300 296 300 308 313 319 323 320 319 314 305 293 281 281 286 291 294 294
159 147 134 126 136 153 150 159 138 125 163 247 292 306 316 325 326 329 331 331 333 329 324 314 302 289 280 287 284 288 294 286
131 126 125 129 124 122 130 129 129 137 332 346 338 354 358 343 348 351 341 330 327 326 319 310 300 286 293 295 285 301 294 295
139 137 139 129 112 119 112 108 89 52 49 55 14 344 339 349 350 336 330 325 323 318 317 309 292 297 294 277 289 284 297 293
146 146 140 130 120 106 95 82 105 94 46 356 344 329 334 334 332 327 328 327 324 322 313 301 296 307 295 285 291 284 294 299
155 149 132 120 119 121 122 142 104 25 349 335 304 291 307 326 330 331 329 327 325 324 309 292 308 309 295 290 286 297 303 305
166 153 145 145 147 146 150 139 7 339 317 292 277 284 313 327 332 329 328 328 328 322 312 300 303 294 307 299 315 320 317 314
163 159 151 149 152 145 151 77 322 294 297 287 277 295 316 329 330 327 326 329 341 343 325 310 124 18 289 298 321 326 324 320
169 166 158 152 156 155 125 304 297 298 302 272 282 315 325 327 323 322 325 330 327 329 311 270 297 54 310 323 326 331 327 324
165 158 157 163 157 168 282 293 308 306 283 288 310 321 318 319 324 325 323 330 325 315 298 223 192 333 324 329 329 331 330 330
Height
836 835 837 838 843 846 850 853 856 857 849 860 864 868 869 869 868 866 868 867 867 867 866 866 866 865 863 861 859 857 854 852
837 836 837 840 845 846 848 850 855 855 857 863 863 866 869 869 868 867 869 867 866 866 866 866 865 864 862 859 857 855 853 850
838 839 840 842 841 845 847 849 851 854 858 861 863 866 868 867 866 869 867 866 866 866 866 865 864 863 861 858 855 853 851 849
840 842 842 843 845 847 848 850 851 855 860 862 864 866 866 866 867 868 867 866 866 865 865 864 863 861 858 856 853 852 850 849
842 843 844 845 847 850 852 853 855 857 860 863 865 864 865 865 866 867 866 866 865 865 864 863 861 858 856 854 852 850 849 847
843 845 847 848 847 849 853 855 857 859 861 860 863 863 863 863 865 866 866 866 865 864 862 860 858 856 853 851 849 849 848 847
844 846 846 848 848 850 852 852 855 857 858 860 862 862 863 865 866 866 865 864 863 862 860 857 854 852 849 848 847 845 844 843
842 843 844 845 846 844 850 852 854 856 857 860 862 863 864 865 865 864 863 862 861 858 855 853 850 848 847 846 845 845 844 843
839 842 845 847 848 849 851 853 854 855 857 859 861 862 863 863 863 862 860 859 856 854 851 849 847 845 843 841 841 840 839 839
839 842 845 846 847 849 852 853 855 857 858 859 860 861 861 861 860 858 857 855 852 850 848 845 842 840 839 838 838 837 836 836
839 841 844 846 848 851 852 854 855 857 857 858 858 859 859 857 856 855 853 851 850 847 844 841 838 836 835 835 834 834 833 832
838 841 844 847 849 850 852 853 854 856 856 857 857 856 855 854 854 853 851 850 847 844 841 838 836 835 834 833 831 830 831 829
838 841 844 847 849 850 850 852 853 854 855 855 855 855 854 853 853 851 849 847 844 840 837 834 833 833 831 829 827 828 827 825
838 841 843 844 845 847 850 852 853 854 854 854 853 853 853 852 851 849 847 843 840 836 833 831 830 829 827 825 826 825 824 824
837 840 841 842 843 847 850 852 853 853 852 852 852 851 851 850 849 846 843 840 836 833 829 829 826 825 824 824 823 823 822 821
835 837 840 842 845 846 849 851 851 850 850 850 850 849 848 847 845 842 839 836 832 829 826 824 824 822 822 822 822 821 820 818
832 835 839 842 844 845 847 848 848 848 848 847 847 846 845 844 841 839 836 833 830 827 825 823 823 822 821 820 820 819 817 815
830 833 836 839 842 844 844 845 845 845 844 844 844 843 842 840 838 836 833 829 827 825 824 822 821 822 820 819 818 817 815 812
828 832 835 838 839 841 842 842 842 842 842 842 841 840 838 836 834 832 829 827 825 824 822 821 821 821 819 817 815 814 812 809